This demonstration page uses our WeatherBlox Daily Observations layout. Learn more.

Left ArrowRight Arrow

Hourly Observations for August 19, 2018

Temp ( °F °C ) Dew Point ( °F °C ) Humidity (%) Winds ( mph kmh ) Pressure ( in mb ) Visibility ( mi km ) Precip ( " mm )
12:16 am 00:16 Clear 66 19 66 19 100 100 Calm 29.97 1015 7 11.26538 N/A
12:37 am 00:37 Mostly Cloudy 66 19 66 19 100 100 Calm 29.97 1015 1 1.60934 N/A
12:56 am 00:56 Mostly Cloudy 66 19 66 19 100 100 Calm 29.97 1015 1.25 2.011675 N/A
1:17 am 01:17 Clear 66 19 66 19 100 100 Calm 29.97 1015 7 11.26538 N/A
1:37 am 01:37 Clear 66 19 66 19 100 100 Calm 29.97 1015 5 8.0467 N/A
1:56 am 01:56 Partly Cloudy 66 19 66 19 100 100 Calm 29.97 1015 5 8.0467 N/A
2:17 am 02:17 Clear 64 18 64 18 100 100 Calm 29.97 1015 4 6.43736 N/A
2:36 am 02:36 Mostly Cloudy 64 18 64 18 100 100 Calm 29.97 1015 1.75 2.816345 N/A
2:57 am 02:57 Mostly Cloudy 64 18 64 18 100 100 Calm 29.97 1015 0.75 1.207005 N/A
3:17 am 03:17 Clear 64 18 64 18 100 100 Calm 29.97 1015 2 3.21868 N/A
3:36 am 03:36 Mostly Cloudy 64 18 64 18 100 100 Calm 29.97 1015 0.75 1.207005 N/A
3:57 am 03:57 Mostly Cloudy 63 17 63 17 100 100 Calm 29.97 1015 1.75 2.816345 N/A
4:16 am 04:16 Mostly Cloudy 63 17 63 17 100 100 Calm 29.97 1015 0.5 0.80467 N/A
4:37 am 04:37 Clear 63 17 63 17 100 100 Calm 29.97 1015 2 3.21868 N/A
4:56 am 04:56 Mostly Cloudy 63 17 63 17 100 100 N 3 6 29.97 1015 0.5 0.80467 N/A
5:16 am 05:16 Mostly Cloudy 63 17 63 17 100 100 Calm 29.97 1015 1.75 2.816345 N/A
5:37 am 05:37 Mostly Cloudy 63 17 63 17 100 100 Calm 29.97 1015 0.5 0.80467 N/A
5:56 am 05:56 Mostly Cloudy 61 16 61 16 100 100 Calm 29.97 1015 0.25 0.402335 N/A
6:16 am 06:16 Mostly Cloudy 63 17 63 17 100 100 Calm 29.97 1015 0.25 0.402335 N/A
6:37 am 06:37 Mostly Cloudy 63 17 63 17 100 100 Calm 29.97 1015 0.25 0.402335 N/A
6:56 am 06:56 Cloudy 61 16 61 16 100 100 Calm 29.97 1015 0.25 0.402335 N/A
7:17 am 07:17 Cloudy 63 17 63 17 100 100 Calm 30 1016 0.25 0.402335 N/A
7:36 am 07:36 Cloudy 63 17 63 17 100 100 Calm 30 1016 5 8.0467 N/A
7:57 am 07:57 Cloudy 64 18 64 18 100 100 Calm 29.97 1015 5 8.0467 N/A
8:17 am 08:17 Mostly Cloudy 64 18 64 18 100 100 Calm 30 1016 0.5 0.80467 N/A
8:36 am 08:36 Partly Cloudy 66 19 66 19 100 100 Calm 30 1016 1.75 2.816345 N/A
8:57 am 08:57 Sunny 66 19 66 19 100 100 Calm 30 1016 4 6.43736 N/A
9:16 am 09:16 Sunny 68 20 68 20 100 100 Calm 30 1016 7 11.26538 N/A
9:37 am 09:37 Sunny 70 21 70 21 100 100 Calm 29.97 1015 10 16.0934 N/A
9:57 am 09:57 Sunny 70 21 70 21 100 100 Calm 29.97 1015 10 16.0934 N/A
10:16 am 10:16 Sunny 72 22 72 22 100 100 Calm 29.97 1015 10 16.0934 N/A
10:37 am 10:37 Sunny 72 22 72 22 100 100 Calm 29.97 1015 10 16.0934 N/A
10:56 am 10:56 Sunny 75 24 70 21 83 83 Calm 29.97 1015 10 16.0934 N/A
11:16 am 11:16 Sunny 77 25 70 21 79 79 Calm 29.97 1015 10 16.0934 N/A
11:37 am 11:37 Sunny 77 25 70 21 79 79 Calm 29.97 1015 10 16.0934 N/A
11:56 am 11:56 Sunny 79 26 68 20 70 70 E 5 7 29.97 1015 10 16.0934 N/A
12:17 pm 12:17 Sunny 81 27 68 20 66 66 ENE 3 6 29.97 1015 10 16.0934 N/A
12:37 pm 12:37 Sunny 81 27 70 21 70 70 ENE 5 7 29.97 1015 10 16.0934 N/A
12:56 pm 12:56 Sunny 81 27 68 20 66 66 ESE 5 7 29.97 1015 10 16.0934 N/A
1:17 pm 13:17 Sunny 81 27 70 21 70 70 E 6 9 29.97 1015 10 16.0934 N/A
1:36 pm 13:36 Sunny 81 27 70 21 70 70 NE 5 7 29.97 1015 10 16.0934 N/A
1:56 pm 13:56 Sunny 82 28 72 22 70 70 E 8 13 29.97 1015 10 16.0934 N/A
2:17 pm 14:17 Sunny 82 28 70 21 66 66 Calm 29.97 1015 10 16.0934 N/A
2:36 pm 14:36 Sunny 82 28 70 21 66 66 Calm 29.97 1015 10 16.0934 N/A
2:57 pm 14:57 Partly Cloudy 82 28 72 22 70 70 ENE 5 7 29.97 1015 10 16.0934 N/A
3:17 pm 15:17 Partly Cloudy 82 28 72 22 70 70 ENE 3 6 29.97 1015 10 16.0934 N/A
3:36 pm 15:36 Sunny 82 28 72 22 70 70 SE 3 6 29.97 1015 10 16.0934 N/A
3:57 pm 15:57 Sunny 82 28 72 22 70 70 Calm 29.97 1015 10 16.0934 N/A
4:17 pm 16:17 Sunny 82 28 72 22 70 70 ESE 5 7 29.97 1015 10 16.0934 N/A
4:36 pm 16:36 Sunny 82 28 72 22 70 70 E 3 6 29.94 1014 10 16.0934 N/A
4:57 pm 16:57 Sunny 82 28 72 22 70 70 ESE 7 11 29.94 1014 10 16.0934 N/A
5:16 pm 17:16 Partly Cloudy 82 28 72 22 70 70 Calm 29.94 1014 10 16.0934 N/A
5:37 pm 17:37 Partly Cloudy 82 28 72 22 70 70 E 6 9 29.94 1014 10 16.0934 N/A
5:56 pm 17:56 Partly Cloudy 81 27 72 22 74 74 ENE 6 9 29.94 1014 10 16.0934 N/A
6:17 pm 18:17 Sunny 81 27 72 22 74 74 E 7 11 29.94 1014 10 16.0934 N/A
6:37 pm 18:37 Sunny 81 27 72 22 74 74 E 5 7 29.94 1014 10 16.0934 N/A
6:56 pm 18:56 Sunny 79 26 73 23 84 84 E 5 7 29.94 1014 10 16.0934 N/A
7:16 pm 19:16 Sunny 77 25 73 23 89 89 Calm 29.94 1014 10 16.0934 N/A
7:36 pm 19:36 Sunny 77 25 73 23 89 89 ENE 5 7 29.94 1014 10 16.0934 N/A
7:57 pm 19:57 Sunny 73 23 73 23 100 100 E 5 7 29.94 1014 10 16.0934 N/A
8:16 pm 20:16 Sunny 72 22 72 22 100 100 E 3 6 29.94 1014 10 16.0934 N/A
8:37 pm 20:37 Clear 73 23 72 22 94 94 Calm 29.94 1014 10 16.0934 N/A
8:56 pm 20:56 Clear 73 23 72 22 94 94 Calm 29.94 1014 10 16.0934 N/A
9:16 pm 21:16 Clear 70 21 70 21 100 100 Calm 29.94 1014 10 16.0934 N/A
9:37 pm 21:37 Clear 68 20 68 20 100 100 ENE 3 6 29.97 1015 10 16.0934 N/A
9:56 pm 21:56 Clear 68 20 68 20 100 100 E 3 6 30 1016 10 16.0934 N/A
10:17 pm 22:17 Clear 68 20 68 20 100 100 E 6 9 30 1016 10 16.0934 N/A
10:37 pm 22:37 Clear 68 20 68 20 100 100 E 6 9 30 1016 10 16.0934 N/A
10:56 pm 22:56 Clear 68 20 68 20 100 100 E 3 6 30 1016 10 16.0934 N/A
11:17 pm 23:17 Clear 68 20 68 20 100 100 Calm 30 1016 10 16.0934 N/A
11:36 pm 23:36 Clear 68 20 68 20 100 100 E 3 6 30 1016 10 16.0934 N/A
11:57 pm 23:57 Clear 68 20 68 20 100 100 E 6 9 30 1016 10 16.0934 N/A

Powered by AerisWeather